W8NES Weather Reports


Display with metric or nautical units.
time (UTC)temp
F
wind
direction
speed
MPH
gust
MPH
rain 1hr
in
rain 24hr
in
rain mn
in
humidity
%
barometer
mb
20260505121600 64 35 0.0 5.0 0.00 0.01 0.00 58 1011.7
20260505120105 64 0 0.0 2.0 0.00 0.01 0.00 59 1011.5
20260505114557 64 0 0.0 1.0 0.00 0.01 0.00 58 1011.4
20260505113115 64 0 0.0 2.0 0.00 0.01 0.00 57 1011.3
20260505111555 64 296 0.0 7.0 0.00 0.01 0.00 56 1011.2
20260505101558 64 0 1.0 3.0 0.00 0.01 0.00 54 1010.9
20260505094556 64 0 1.0 4.0 0.00 0.01 0.00 55 1010.3
20260505093105 64 51 1.0 4.0 0.00 0.01 0.00 54 1010.1
20260505091558 64 161 1.0 5.0 0.00 0.01 0.00 55 1010.0
20260505090058 64 284 0.0 4.0 0.00 0.01 0.00 55 1010.0
20260505084557 64 76 1.0 5.0 0.00 0.01 0.00 55 1010.0
20260505083103 64 296 0.0 3.0 0.00 0.01 0.00 56 1009.9
20260505081558 64 0 0.0 5.0 0.00 0.01 0.00 55 1009.9
20260505080111 64 0 1.0 4.0 0.00 0.01 0.00 55 1009.8
20260505074556 64 244 0.0 7.0 0.00 0.01 0.00 55 1009.6
20260505073107 64 0 0.0 4.0 0.00 0.01 0.00 54 1009.7
20260505071559 64 198 0.0 8.0 0.00 0.01 0.00 54 1009.7
20260505070057 64 175 0.0 4.0 0.00 0.01 0.00 54 1009.6
20260505064601 63 0 0.0 3.0 0.00 0.01 0.00 54 1009.6
20260505063102 64 0 0.0 4.0 0.00 0.01 0.00 55 1009.6
20260505061601 63 0 1.0 4.0 0.00 0.01 0.00 54 1009.6
20260505054557 62 53 1.0 4.0 0.00 0.01 0.00 57 1009.6
20260505053116 62 267 0.0 3.0 0.00 0.01 0.00 59 1009.6
20260505051559 62 234 0.0 3.0 0.00 0.01 0.00 60 1009.5
20260505050113 61 0 0.0 2.0 0.00 0.01 0.00 61 1009.4
20260505041554 63 0 0.0 1.0 0.00 0.01 0.00 60 1009.0
20260505040055 63 0 0.0 1.0 0.00 0.01 0.00 60 1009.0
20260505034615 63 0 0.0 2.0 0.00 0.01 0.01 59 1008.9
20260505033057 63 0 0.0 1.0 0.00 0.01 0.01 58 1008.9
20260505031556 63 0 0.0 3.0 0.00 0.01 0.01 59 1008.8
20260505030055 63 0 0.0 2.0 0.00 0.01 0.01 60 1008.9
20260505024556 63 0 0.0 1.0 0.00 0.01 0.01 62 1008.9
20260505023101 63 0 0.0 2.0 0.00 0.01 0.01 63 1008.8
20260505021559 63 0 0.0 2.0 0.00 0.01 0.01 63 1008.6
20260505020100 63 0 0.0 2.0 0.00 0.01 0.01 63 1008.7
20260505014558 64 0 0.0 2.0 0.00 0.01 0.01 64 1008.7
20260505013101 65 0 0.0 2.0 0.00 0.01 0.01 61 1008.6
20260505011612 66 0 0.0 1.0 0.00 0.01 0.01 59 1008.7
20260505010059 67 0 0.0 1.0 0.00 0.01 0.01 57 1008.5
20260505004607 68 273 0.0 3.0 0.00 0.01 0.01 54 1008.4
20260505003057 70 0 0.0 3.0 0.00 0.01 0.01 53 1008.5
20260505001629 70 0 0.0 3.0 0.00 0.01 0.01 52 1008.6
20260505000109 71 0 0.0 2.0 0.00 0.01 0.01 52 1008.6
20260504234559 72 300 0.0 3.0 0.00 0.01 0.01 52 1008.5
20260504233111 73 0 0.0 3.0 0.00 0.01 0.01 52 1008.5
20260504231559 73 0 1.0 4.0 0.00 0.01 0.01 51 1008.3
20260504224608 74 140 1.0 7.0 0.00 0.01 0.01 46 1008.5
20260504223101 74 128 1.0 5.0 0.00 0.01 0.01 48 1008.6
20260504221601 75 144 0.0 2.0 0.00 0.01 0.01 46 1008.5
20260504220058 76 108 0.0 4.0 0.00 0.01 0.01 49 1008.5
20260504214600 75 324 1.0 5.0 0.00 0.01 0.01 47 1008.7
20260504213101 76 284 1.0 5.0 0.00 0.01 0.01 47 1008.9
20260504211554 75 304 2.0 9.0 0.00 0.01 0.01 47 1009.0
20260504210059 74 246 2.0 5.0 0.00 0.01 0.01 47 1009.2
20260504204620 71 290 1.0 7.0 0.00 0.01 0.01 49 1009.4
20260504203059 70 0 0.0 4.0 0.00 0.01 0.01 55 1009.4
20260504201601 70 249 2.0 8.0 0.00 0.01 0.01 53 1009.4
20260504194604 67 0 1.0 5.0 0.01 0.01 0.01 62 1009.7
20260504193107 66 49 1.0 4.0 0.01 0.01 0.01 67 1010.0
20260504191613 69 24 1.0 11.0 0.01 0.01 0.01 59 1009.9
20260504184559 73 246 3.0 11.0 0.00 0.00 0.00 44 1010.6
20260504183058 72 142 1.0 9.0 0.00 0.00 0.00 47 1010.4
20260504181609 73 196 3.0 9.0 0.00 0.00 0.00 46 1010.2
20260504180057 71 196 2.0 10.0 0.00 0.00 0.00 47 1010.2
20260504174559 72 134 2.0 7.0 0.00 0.00 0.00 50 1010.2
20260504173057 68 91 2.0 10.0 0.00 0.00 0.00 52 1010.6
20260504171558 69 105 2.0 8.0 0.00 0.00 0.00 50 1010.9
20260504170106 69 105 2.0 6.0 0.00 0.00 0.00 53 1011.3